Home   Weather   Lage   Past weeks

Flag for Germany Past Weather in Lage, North Rhine-Westphalia, Germany — Yesterday and Last 2 Weeks

Now
54 °F

Cool.


Feels Like: 52 °F
Forecast: 49 / 59 °F
Wind: 6 mph from South

Location: Bueckeburg

Current Time: Oct 1, 2016 at 7:06:04 AM

Latest Report: Oct 1, 2016 at 6:20 AM


Visibility: 3 mi

Pressure: 29.86 "Hg

Humidity: 88%

Dew Point: 50 °F

Location of LageLocation

Past Weather in Lage — Graph

°F

Lage Temperature Yesterday

Maximum temperature yesterday: 64 °F (at 2:20 PM)
Minimum temperature yesterday: 52 °F (at 9:20 PM)
Average temperature yesterday: 59 °F

High & Low Weather Summary for the Past Weeks

 TemperatureHumidityPressure
High79 °F (Sep 25, 5:20 PM)100% (Sep 17, 12:20 PM)30.30 "Hg (Sep 17, 12:20 PM)
Low46 °F (Sep 19, 5:20 AM)37% (Sep 25, 5:20 PM)29.83 "Hg (Sep 29, 9:20 PM)
Average61 °F72%30.09 "Hg
* Reported Sep 16 5:20 AM — Oct 1 5:20 AM, Lage, Weather by CustomWeather, © 2016

Note: Actual official high and low records may vary slightly from our data, if they occured in-between our weather recording intervals... More about our weather records

Advertising

Lage Weather History for the Previous 24 Hours

Scroll right to see more
 ConditionsComfort  
Time TempWeatherWind HumidityBarometerVisibility
5:20 AM
Sat, Oct 1
54 °FCool.6 mph88%29.86 "Hg3 mi
4:20 AM55 °FCool.8 mph77%29.89 "Hg3 mi
3:20 AM54 °FCool.8 mph77%29.89 "Hg3 mi
2:20 AM55 °FCool.7 mph72%29.92 "Hg3 mi
1:20 AM54 °FCool.6 mph77%29.92 "Hg3 mi
12:20 AM52 °FCool.6 mph82%29.92 "Hg3 mi
11:20 PM
Fri, Sep 30
52 °FCool.7 mph77%29.95 "Hg3 mi
10:20 PM52 °FCool.5 mph82%29.95 "Hg3 mi
9:20 PM52 °FCool.5 mph82%29.95 "Hg3 mi
8:20 PM54 °FCool.6 mph77%29.95 "Hg3 mi
7:20 PM57 °FPassing clouds.6 mph63%29.92 "HgN/A
6:20 PM63 °FScattered clouds.10 mph52%29.92 "HgN/A
5:20 PM64 °FScattered clouds.15 mph52%29.92 "HgN/A
4:20 PM64 °FScattered clouds.17 mph56%29.92 "HgN/A
3:20 PM64 °FBroken clouds.17 mph56%29.92 "HgN/A
2:20 PM64 °FBroken clouds.14 mph60%29.92 "HgN/A
1:20 PM63 °FPartly sunny.15 mph64%29.92 "HgN/A
12:20 PM63 °FPartly sunny.16 mph68%29.92 "HgN/A
11:20 AM61 °FPartly sunny.12 mph77%29.92 "HgN/A
10:52 AM61 °FPartly sunny.12 mph77%29.92 "HgN/A
10:20 AM59 °FBroken clouds.9 mph88%29.92 "HgN/A
9:20 AM59 °FPartly sunny.12 mph82%29.89 "HgN/A
8:20 AM57 °FBroken clouds.6 mph88%29.89 "HgN/A
7:20 AM57 °FPassing clouds.7 mph88%29.89 "HgN/A
Weather by CustomWeather, © 2016

See weather overviewHow to use our weather pages